Location: Newark
(42.0700°N, 88.0492°W)
Time: 00:46:53
(UTC+00:00)

ISS - Pass Details

Date: 28 September 2019
Orbit: 411 x 421 km, 51.6° (Epoch: 21 October)

Event Time Altitude Azimuth Distance (km) Brightness Sun altitude
Rises 00:41:24 0° 285° (WNW) 2,343 2.1 -12.0°
Reaches altitude 10° 00:44:00 10° 307° (NW) 1,482 0.1 -12.5°
Maximum altitude 00:46:18 17° 351° (N) 1,121 -1.4 -12.9°
Drops below altitude 10° 00:48:36 10° 35° (NE) 1,483 -1.2 -13.3°
Enters shadow 00:49:02 - 40° (NE) 1,609 -1.1 -13.4°
